This demonstration page uses our WeatherBlox Daily Observations layout. Learn more.

38.89511, -77.03637

Hourly Observations for June 21, 2018

Temp ( °F °C ) Dew Point ( °F °C ) Humidity (%) Winds ( mph kmh ) Pressure ( in mb ) Visibility ( mi km ) Precip ( " mm )
12:52 am 00:52 Cloudy 74 23.3 69 20.6 85 85 W 7 11 29.77 1008 10 16.09344 0 0
1:52 am 01:52 Cloudy 73 22.8 69 20.6 87 87 WSW 6 9 29.77 1008 10 16.09344 0 0
2:16 am 02:16 Cloudy 73 22.8 69 20.6 87 87 SSW 5 7 29.77 1008 10 16.09344 0 0
2:52 am 02:52 Cloudy 73 22.8 69 20.6 87 87 SSW 3 6 29.74 1007 10 16.09344 0 0
3:52 am 03:52 Mostly Cloudy 73 22.8 69 20.6 87 87 Calm 29.71 1006 10 16.09344 0 0
4:52 am 04:52 Mostly Cloudy 73 22.8 69 20.6 87 87 SSW 5 7 29.71 1006 10 16.09344 0 0
5:52 am 05:52 Mostly Cloudy 73 22.8 69 20.6 87 87 SW 5 7 29.74 1007 10 16.09344 0 0
6:52 am 06:52 Mostly Cloudy 74 23.3 70 21.1 88 88 S 3 6 29.74 1007 10 16.09344 0 0
7:52 am 07:52 Mostly Cloudy 76 24.4 70 21.1 82 82 W 5 7 29.77 1008 10 16.09344 0 0
8:52 am 08:52 Mostly Cloudy 79 26.1 70 21.1 74 74 WNW 5 7 29.77 1008 10 16.09344 0 0
9:52 am 09:52 Mostly Cloudy 79 26.1 71 21.7 77 77 ENE 5 7 29.77 1008 10 16.09344 0 0
10:52 am 10:52 Cloudy 81 27.2 70 21.1 69 69 N 8 13 29.77 1008 10 16.09344 0 0
11:52 am 11:52 Mostly Cloudy 81 27.2 70 21.1 69 69 N 12 19 29.77 1008 10 16.09344 0 0
12:52 pm 12:52 Mostly Cloudy 81 27.2 72 22.2 74 74 NE 12 19 29.77 1008 10 16.09344 0 0
1:42 pm 13:42 Cloudy 83 28.3 70 21.1 65 65 N 9 15 29.8 1009 10 16.09344 0 0
1:52 pm 13:52 Mostly Cloudy 82 27.8 69 20.6 65 65 N 12 19 29.77 1008 10 16.09344 0 0
2:07 pm 14:07 Mostly Cloudy 82 27.8 69 20.6 65 65 N 9 15 29.8 1009 10 16.09344 0 0
2:37 pm 14:37 Cloudy 84 28.9 70 21.1 63 63 N 9 15 29.77 1008 10 16.09344 0 0
2:52 pm 14:52 Cloudy 83 28.3 69 20.6 63 63 N 10 17 29.77 1008 10 16.09344 0 0
3:52 pm 15:52 Mostly Cloudy 85 29.4 69 20.6 59 59 NNE 12 19 29.77 1008 10 16.09344 0 0
4:52 pm 16:52 Cloudy 83 28.3 68 20 61 61 NNW 9 15 29.77 1008 10 16.09344 0 0
5:52 pm 17:52 Cloudy 82 27.8 68 20 63 63 NNE 10 17 29.77 1008 10 16.09344 0 0
6:52 pm 18:52 Cloudy 81 27.2 68 20 65 65 NE 7 11 29.77 1008 10 16.09344 0 0
7:52 pm 19:52 Cloudy 81 27.2 68 20 65 65 E 5 7 29.8 1009 10 16.09344 0 0
8:52 pm 20:52 Cloudy 79 26.1 69 20.6 72 72 E 7 11 29.8 1009 10 16.09344 0 0
9:52 pm 21:52 Mostly Cloudy 79 26.1 67 19.4 67 67 E 7 11 29.8 1009 10 16.09344 0 0
10:52 pm 22:52 Cloudy 79 26.1 66 18.9 65 65 E 3 6 29.8 1009 10 16.09344 0 0
11:52 pm 23:52 Cloudy 78 25.6 68 20 71 71 ESE 5 7 29.83 1010 10 16.09344 0 0

Powered by AerisWeather